Time,TemperatureF,DewpointF,PressureIn,WindDirection,WindDirectionDegrees,WindSpeedMPH,WindSpeedGustMPH,Humidity,HourlyPrecipIn,Conditions,Clouds,dailyrainin,SoftwareType,DateUTC
2013-06-24 00:01:00,74.3,70.8,29.82,SSE,149,1.0,1.0,89,0.00,,BKN200,0.00,VWS V14.01,2013-06-24 05:01:00,
2013-06-24 00:06:00,74.3,70.8,29.82,SE,132,0.0,2.0,89,0.00,,BKN200,0.00,VWS V14.01,2013-06-24 05:06:00,
2013-06-24 00:11:00,74.3,70.8,29.82,SE,132,2.0,2.0,89,0.00,,BKN200,0.00,VWS V14.01,2013-06-24 05:11:00,
2013-06-24 00:16:00,74.3,71.2,29.82,SE,132,0.0,0.0,90,0.00,,BKN200,0.00,VWS V14.01,2013-06-24 05:16:00,
2013-06-24 00:21:00,74.2,71.1,29.81,SE,132,0.0,1.0,90,0.00,,BKN200,0.00,VWS V14.01,2013-06-24 05:21:00,
2013-06-24 00:27:00,74.1,71.0,29.81,SE,143,0.0,3.0,90,0.00,,BKN200,0.00,VWS V14.01,2013-06-24 05:27:00,
2013-06-24 00:32:00,74.0,70.9,29.81,SE,143,0.0,2.0,90,0.00,,BKN200,0.00,VWS V14.01,2013-06-24 05:32:00,
2013-06-24 00:37:00,74.0,70.9,29.80,SE,143,0.0,1.0,90,0.00,,BKN200,0.00,VWS V14.01,2013-06-24 05:37:00,
2013-06-24 00:42:00,73.9,70.8,29.80,SE,143,0.0,1.0,90,0.00,,BKN200,0.00,VWS V14.01,2013-06-24 05:42:00,
2013-06-24 00:47:00,73.8,70.7,29.80,SE,143,0.0,3.0,90,0.00,,BKN200,0.00,VWS V14.01,2013-06-24 05:47:00,
2013-06-24 00:52:00,73.7,70.9,29.79,SE,142,0.0,1.0,91,0.00,,BKN200,0.00,VWS V14.01,2013-06-24 05:52:00,
2013-06-24 00:57:00,73.7,70.9,29.79,SE,142,0.0,1.0,91,0.00,,BKN200,0.00,VWS V14.01,2013-06-24 05:57:00,
2013-06-24 01:02:00,73.6,70.8,29.79,SE,142,0.0,0.0,91,0.00,,BKN200,0.00,VWS V14.01,2013-06-24 06:02:00,
2013-06-24 01:08:00,73.5,70.7,29.79,SE,142,0.0,0.0,91,0.00,,BKN200,0.00,VWS V14.01,2013-06-24 06:08:00,
2013-06-24 01:13:00,73.5,70.7,29.79,SE,142,0.0,0.0,91,0.00,,BKN200,0.00,VWS V14.01,2013-06-24 06:13:00,
2013-06-24 01:18:00,73.4,70.6,29.79,SE,142,0.0,2.0,91,0.00,,BKN200,0.00,VWS V14.01,2013-06-24 06:18:00,
2013-06-24 01:23:00,73.3,70.5,29.79,SE,142,0.0,2.0,91,0.00,,BKN200,0.00,VWS V14.01,2013-06-24 06:23:00,
2013-06-24 01:28:00,73.3,70.8,29.79,SE,142,0.0,2.0,92,0.00,,BKN200,0.00,VWS V14.01,2013-06-24 06:28:00,
2013-06-24 01:33:00,73.3,70.8,29.79,SE,142,0.0,0.0,92,0.00,,BKN200,0.00,VWS V14.01,2013-06-24 06:33:00,
2013-06-24 01:38:00,73.3,70.8,29.80,SE,142,0.0,0.0,92,0.00,,BKN200,0.00,VWS V14.01,2013-06-24 06:38:00,
2013-06-24 01:43:00,73.3,70.8,29.80,SE,142,0.0,0.0,92,0.00,,BKN200,0.00,VWS V14.01,2013-06-24 06:43:00,
2013-06-24 01:48:00,73.2,70.7,29.80,SE,142,0.0,0.0,92,0.00,,BKN200,0.00,VWS V14.01,2013-06-24 06:48:00,
2013-06-24 01:53:00,73.2,70.7,29.80,SE,142,0.0,1.0,92,0.00,,BKN200,0.00,VWS V14.01,2013-06-24 06:53:00,
2013-06-24 01:58:00,73.2,70.7,29.80,SE,142,0.0,0.0,92,0.00,,BKN200,0.00,VWS V14.01,2013-06-24 06:58:00,
2013-06-24 02:03:00,73.1,70.6,29.80,SE,142,0.0,0.0,92,0.00,,BKN200,0.00,VWS V14.01,2013-06-24 07:03:00,
2013-06-24 02:08:00,73.0,70.5,29.80,SE,142,0.0,0.0,92,0.00,,BKN200,0.00,VWS V14.01,2013-06-24 07:08:00,
2013-06-24 02:13:00,73.0,70.5,29.80,SE,142,0.0,0.0,92,0.00,,BKN200,0.00,VWS V14.01,2013-06-24 07:13:00,
2013-06-24 02:19:00,72.9,70.4,29.80,SE,142,0.0,0.0,92,0.00,,BKN200,0.00,VWS V14.01,2013-06-24 07:19:00,
2013-06-24 02:24:00,72.9,70.4,29.80,SE,142,0.0,0.0,92,0.00,,BKN200,0.00,VWS V14.01,2013-06-24 07:24:00,
2013-06-24 02:29:00,72.9,70.8,29.80,SE,142,0.0,0.0,93,0.00,,BKN200,0.00,VWS V14.01,2013-06-24 07:29:00,
2013-06-24 02:34:00,72.9,70.8,29.80,SE,142,0.0,0.0,93,0.00,,BKN200,0.00,VWS V14.01,2013-06-24 07:34:00,
2013-06-24 02:39:00,72.9,70.8,29.80,SE,142,0.0,0.0,93,0.00,,BKN200,0.00,VWS V14.01,2013-06-24 07:39:00,
2013-06-24 02:44:00,72.9,70.8,29.80,SE,142,0.0,0.0,93,0.00,,OVC095,0.00,VWS V14.01,2013-06-24 07:44:00,
2013-06-24 02:49:00,73.0,70.9,29.81,ESE,104,0.0,2.0,93,0.00,,OVC095,0.00,VWS V14.01,2013-06-24 07:49:00,
2013-06-24 02:54:00,73.1,70.6,29.81,ESE,104,0.0,0.0,92,0.00,,OVC095,0.00,VWS V14.01,2013-06-24 07:54:00,
2013-06-24 02:59:00,73.2,70.7,29.81,South,183,1.0,2.0,92,0.00,,OVC095,0.00,VWS V14.01,2013-06-24 07:59:00,
2013-06-24 03:04:00,73.3,70.8,29.81,SSE,159,0.0,1.0,92,0.00,,OVC095,0.00,VWS V14.01,2013-06-24 08:04:00,
2013-06-24 03:09:00,73.5,70.7,29.81,East,99,0.0,3.0,91,0.00,,OVC095,0.00,VWS V14.01,2013-06-24 08:09:00,
2013-06-24 03:14:00,73.7,70.6,29.81,South,188,1.0,3.0,90,0.00,,OVC095,0.00,VWS V14.01,2013-06-24 08:14:00,
2013-06-24 03:19:00,74.0,70.9,29.81,South,177,0.0,0.0,90,0.00,,OVC095,0.00,VWS V14.01,2013-06-24 08:19:00,
2013-06-24 03:25:00,74.1,70.7,29.81,South,177,0.0,1.0,89,0.00,,OVC095,0.00,VWS V14.01,2013-06-24 08:25:00,
2013-06-24 03:30:00,74.2,70.8,29.81,SSE,164,1.0,2.0,89,0.00,,OVC095,0.00,VWS V14.01,2013-06-24 08:30:00,
2013-06-24 03:35:00,74.1,70.7,29.82,SE,126,0.0,1.0,89,0.00,,OVC095,0.00,VWS V14.01,2013-06-24 08:35:00,
2013-06-24 03:40:00,74.0,70.6,29.82,SE,131,0.0,2.0,89,0.00,,OVC095,0.00,VWS V14.01,2013-06-24 08:40:00,
2013-06-24 03:45:00,74.0,70.6,29.82,SE,136,3.0,3.0,89,0.00,,SCT100,0.00,VWS V14.01,2013-06-24 08:45:00,
2013-06-24 03:50:00,74.0,70.6,29.82,SE,138,1.0,3.0,89,0.00,,SCT100,0.00,VWS V14.01,2013-06-24 08:50:00,
2013-06-24 03:55:00,74.0,70.6,29.82,SSE,156,0.0,3.0,89,0.00,,SCT100,0.00,VWS V14.01,2013-06-24 08:55:00,
2013-06-24 04:00:00,74.0,70.6,29.82,SSE,152,2.0,4.0,89,0.00,,SCT100,0.00,VWS V14.01,2013-06-24 09:00:00,
2013-06-24 04:05:00,74.0,70.6,29.82,SSE,152,2.0,3.0,89,0.00,,SCT100,0.00,VWS V14.01,2013-06-24 09:05:00,
2013-06-24 04:10:00,74.0,70.2,29.81,SE,136,0.0,4.0,88,0.00,,SCT100,0.00,VWS V14.01,2013-06-24 09:10:00,
2013-06-24 04:15:00,74.0,70.2,29.81,South,181,3.0,3.0,88,0.00,,SCT100,0.00,VWS V14.01,2013-06-24 09:15:00,
2013-06-24 04:20:00,74.0,70.2,29.82,SSE,164,3.0,3.0,88,0.00,,SCT100,0.00,VWS V14.01,2013-06-24 09:20:00,
2013-06-24 04:26:00,73.9,70.1,29.82,SE,139,0.0,2.0,88,0.00,,SCT100,0.00,VWS V14.01,2013-06-24 09:26:00,
2013-06-24 04:31:00,73.9,70.1,29.82,SE,139,2.0,2.0,88,0.00,,BKN250,0.00,VWS V14.01,2013-06-24 09:31:00,
2013-06-24 04:36:00,73.8,70.0,29.82,SE,134,2.0,3.0,88,0.00,,BKN250,0.00,VWS V14.01,2013-06-24 09:36:00,
2013-06-24 04:41:00,73.8,70.0,29.82,SE,141,0.0,2.0,88,0.00,,BKN250,0.00,VWS V14.01,2013-06-24 09:41:00,
2013-06-24 04:46:00,73.8,70.0,29.81,SE,141,3.0,3.0,88,0.00,,BKN250,0.00,VWS V14.01,2013-06-24 09:46:00,
2013-06-24 04:51:00,73.6,69.8,29.82,South,174,3.0,3.0,88,0.00,,BKN250,0.00,VWS V14.01,2013-06-24 09:51:00,
2013-06-24 04:57:00,73.6,69.8,29.81,South,169,2.0,3.0,88,0.00,,BKN250,0.00,VWS V14.01,2013-06-24 09:57:00,
2013-06-24 05:02:00,73.5,69.7,29.80,SE,143,5.0,6.0,88,0.00,,BKN250,0.00,VWS V14.01,2013-06-24 10:02:00,
2013-06-24 05:07:00,73.5,69.4,29.80,South,181,2.0,4.0,87,0.00,,BKN250,0.00,VWS V14.01,2013-06-24 10:07:00,
2013-06-24 05:12:00,73.6,69.5,29.81,South,174,3.0,4.0,87,0.00,,BKN250,0.00,VWS V14.01,2013-06-24 10:12:00,
2013-06-24 05:17:00,73.7,69.6,29.81,South,175,3.0,6.0,87,0.00,,BKN250,0.00,VWS V14.01,2013-06-24 10:17:00,
2013-06-24 05:22:00,73.7,69.3,29.80,South,186,2.0,5.0,86,0.00,,BKN250,0.00,VWS V14.01,2013-06-24 10:22:00,
2013-06-24 05:27:00,73.8,69.3,29.81,South,174,4.0,5.0,86,0.00,,BKN250,0.00,VWS V14.01,2013-06-24 10:27:00,
2013-06-24 05:32:00,73.8,69.3,29.81,South,172,5.0,5.0,86,0.00,,BKN250,0.00,VWS V14.01,2013-06-24 10:32:00,
2013-06-24 05:38:00,74.0,69.6,29.80,South,172,11.0,11.0,86,0.00,,BKN250,0.00,VWS V14.01,2013-06-24 10:38:00,
2013-06-24 05:43:00,74.6,69.1,29.80,South,191,8.0,13.0,83,0.00,,BKN250,0.00,VWS V14.01,2013-06-24 10:43:00,
2013-06-24 05:48:00,74.7,68.8,29.80,SSE,158,4.0,8.0,82,0.00,,BKN250,0.00,VWS V14.01,2013-06-24 10:48:00,
2013-06-24 05:53:00,74.6,68.8,29.80,SW,220,3.0,5.0,82,0.00,,BKN250,0.00,VWS V14.01,2013-06-24 10:53:00,
2013-06-24 05:58:00,74.7,68.5,29.80,South,191,4.0,5.0,81,0.00,,BKN250,0.00,VWS V14.01,2013-06-24 10:58:00,
2013-06-24 06:03:00,74.7,68.5,29.80,SSW,192,6.0,10.0,81,0.00,,BKN250,0.00,VWS V14.01,2013-06-24 11:03:00,
2013-06-24 06:08:00,75.0,68.8,29.80,South,189,6.0,7.0,81,0.00,,BKN250,0.00,VWS V14.01,2013-06-24 11:08:00,
2013-06-24 06:13:00,75.2,69.0,29.80,SSW,204,7.0,11.0,81,0.00,,BKN250,0.01,VWS V14.01,2013-06-24 11:13:00,
2013-06-24 06:18:00,74.9,69.4,29.80,South,189,11.0,14.0,83,0.00,,BKN250,0.03,VWS V14.01,2013-06-24 11:18:00,
2013-06-24 06:23:00,74.9,69.4,29.80,South,187,12.0,12.0,83,0.00,,BKN250,0.03,VWS V14.01,2013-06-24 11:23:00,
2013-06-24 06:28:00,74.7,69.2,29.80,South,172,10.0,10.0,83,0.00,,BKN250,0.03,VWS V14.01,2013-06-24 11:28:00,
2013-06-24 06:33:00,74.6,69.4,29.80,SSE,147,7.0,9.0,84,0.00,,,0.03,VWS V14.01,2013-06-24 11:33:00,
2013-06-24 06:38:00,74.4,69.3,29.80,South,170,5.0,9.0,84,0.00,,,0.03,VWS V14.01,2013-06-24 11:38:00,
2013-06-24 06:44:00,74.2,69.4,29.80,South,189,4.0,8.0,85,0.00,,BKN250,0.03,VWS V14.01,2013-06-24 11:44:00,
2013-06-24 06:49:00,74.2,69.4,29.80,SSE,166,7.0,8.0,85,0.00,,BKN250,0.03,VWS V14.01,2013-06-24 11:49:00,
2013-06-24 06:54:00,74.0,69.2,29.81,SSE,163,5.0,8.0,85,0.00,,BKN250,0.03,VWS V14.01,2013-06-24 11:54:00,
2013-06-24 06:59:00,74.0,69.6,29.81,South,184,5.0,7.0,86,0.00,,BKN250,0.03,VWS V14.01,2013-06-24 11:59:00,
2013-06-24 07:04:00,74.0,69.6,29.81,SE,145,5.0,6.0,86,0.00,,BKN250,0.03,VWS V14.01,2013-06-24 12:04:00,
2013-06-24 07:09:00,74.0,69.6,29.82,SSE,160,4.0,6.0,86,0.00,,BKN250,0.03,VWS V14.01,2013-06-24 12:09:00,
2013-06-24 07:14:00,74.1,69.7,29.81,SSE,168,8.0,9.0,86,0.00,,BKN250,0.03,VWS V14.01,2013-06-24 12:14:00,
2013-06-24 07:20:00,74.2,69.8,29.81,SSE,158,4.0,6.0,86,0.00,,BKN250,0.03,VWS V14.01,2013-06-24 12:20:00,
2013-06-24 07:25:00,74.2,69.8,29.80,South,174,6.0,7.0,86,0.00,,BKN250,0.03,VWS V14.01,2013-06-24 12:25:00,
2013-06-24 07:30:00,74.1,69.7,29.80,South,177,5.0,10.0,86,0.00,,BKN250,0.03,VWS V14.01,2013-06-24 12:30:00,
2013-06-24 07:35:00,74.2,69.8,29.80,SSE,166,5.0,6.0,86,0.00,,OVC250,0.03,VWS V14.01,2013-06-24 12:35:00,
2013-06-24 07:40:00,74.3,69.8,29.80,SSE,157,7.0,10.0,86,0.00,,OVC250,0.03,VWS V14.01,2013-06-24 12:40:00,
2013-06-24 07:45:00,74.6,69.8,29.80,South,186,5.0,8.0,85,0.00,,OVC250,0.03,VWS V14.01,2013-06-24 12:45:00,
2013-06-24 07:50:00,74.8,70.0,29.80,South,170,5.0,7.0,85,0.00,,OVC250,0.03,VWS V14.01,2013-06-24 12:50:00,
2013-06-24 07:55:00,74.9,70.1,29.80,South,184,3.0,5.0,85,0.00,,OVC250,0.03,VWS V14.01,2013-06-24 12:55:00,
2013-06-24 08:00:00,75.0,70.2,29.81,SSE,168,3.0,4.0,85,0.00,,OVC250,0.03,VWS V14.01,2013-06-24 13:00:00,
2013-06-24 08:05:00,75.0,70.2,29.81,SSE,148,2.0,4.0,85,0.00,,OVC250,0.03,VWS V14.01,2013-06-24 13:05:00,
2013-06-24 08:11:00,75.1,70.3,29.81,South,170,4.0,4.0,85,0.00,,OVC250,0.03,VWS V14.01,2013-06-24 13:11:00,
2013-06-24 08:16:00,75.2,70.4,29.81,SE,146,2.0,2.0,85,0.00,,OVC250,0.03,VWS V14.01,2013-06-24 13:16:00,
2013-06-24 08:21:00,75.3,70.1,29.81,South,173,4.0,4.0,84,0.00,,OVC250,0.03,VWS V14.01,2013-06-24 13:21:00,
2013-06-24 08:26:00,75.4,69.9,29.81,South,170,3.0,4.0,83,0.00,,OVC250,0.03,VWS V14.01,2013-06-24 13:26:00,
2013-06-24 08:31:00,75.6,70.4,29.82,SSE,164,2.0,3.0,84,0.00,,,0.03,VWS V14.01,2013-06-24 13:31:00,
2013-06-24 08:36:00,75.8,70.6,29.82,SSE,164,0.0,0.0,84,0.00,,,0.03,VWS V14.01,2013-06-24 13:36:00,
2013-06-24 08:41:00,76.0,70.1,29.82,SSE,164,1.0,3.0,82,0.00,,OVC048,0.03,VWS V14.01,2013-06-24 13:41:00,
2013-06-24 08:47:00,76.1,70.2,29.82,SSE,164,0.0,0.0,82,0.00,,OVC048,0.03,VWS V14.01,2013-06-24 13:47:00,
2013-06-24 08:52:00,76.3,70.8,29.82,SSE,164,3.0,4.0,83,0.00,,OVC048,0.03,VWS V14.01,2013-06-24 13:52:00,
2013-06-24 08:57:00,76.4,71.2,29.83,SSE,164,0.0,0.0,84,0.00,,OVC048,0.03,VWS V14.01,2013-06-24 13:57:00,
2013-06-24 09:02:00,76.4,70.5,29.83,SSE,164,1.0,2.0,82,0.00,,OVC048,0.03,VWS V14.01,2013-06-24 14:02:00,
2013-06-24 09:07:00,76.4,70.5,29.83,SSE,164,0.0,3.0,82,0.00,,OVC048,0.03,VWS V14.01,2013-06-24 14:07:00,
2013-06-24 09:12:00,76.3,70.8,29.83,SSE,164,2.0,3.0,83,0.00,,OVC048,0.03,VWS V14.01,2013-06-24 14:12:00,
2013-06-24 09:17:00,76.2,71.0,29.84,SSE,164,1.0,3.0,84,0.00,,OVC048,0.04,VWS V14.01,2013-06-24 14:17:00,
2013-06-24 09:22:00,75.8,70.6,29.85,South,189,3.0,5.0,84,0.00,,OVC048,0.04,VWS V14.01,2013-06-24 14:22:00,
2013-06-24 09:27:00,75.3,70.8,29.86,SW,214,2.0,4.0,86,0.00,,OVC048,0.05,VWS V14.01,2013-06-24 14:27:00,
2013-06-24 09:32:00,74.7,70.6,29.86,SW,226,5.0,6.0,87,0.00,,-RA,0.07,VWS V14.01,2013-06-24 14:32:00,
2013-06-24 10:54:00,72.6,70.2,29.87,SSE,164,5.0,5.0,92,0.00,,-RA,0.27,VWS V14.01,2013-06-24 15:54:00,
2013-06-24 10:59:00,72.6,70.2,29.89,SSW,200,7.0,8.0,92,0.00,,-RA,0.27,VWS V14.01,2013-06-24 15:59:00,
2013-06-24 11:04:00,72.6,70.2,29.89,SSW,197,5.0,7.0,92,0.00,,OVC075,0.27,VWS V14.01,2013-06-24 16:04:00,
2013-06-24 11:09:00,72.5,70.1,29.89,SSW,194,4.0,6.0,92,0.00,,OVC075,0.27,VWS V14.01,2013-06-24 16:09:00,
2013-06-24 11:14:00,72.4,69.9,29.88,South,182,4.0,5.0,92,0.00,,OVC075,0.27,VWS V14.01,2013-06-24 16:14:00,
2013-06-24 11:19:00,72.5,70.1,29.88,SSE,166,8.0,9.0,92,0.00,,OVC075,0.28,VWS V14.01,2013-06-24 16:19:00,
2013-06-24 11:24:00,72.5,70.1,29.89,South,177,8.0,8.0,92,0.00,,OVC075,0.28,VWS V14.01,2013-06-24 16:24:00,
2013-06-24 11:29:00,72.5,70.4,29.87,SE,141,4.0,9.0,93,0.00,,OVC075,0.29,VWS V14.01,2013-06-24 16:29:00,
2013-06-24 11:34:00,72.4,70.3,29.85,South,175,4.0,8.0,93,0.00,,OVC075,0.30,VWS V14.01,2013-06-24 16:34:00,
2013-06-24 11:39:00,72.2,70.1,29.83,SSE,162,8.0,15.0,93,0.00,,OVC075,0.30,VWS V14.01,2013-06-24 16:39:00,
2013-06-24 11:44:00,72.0,69.9,29.82,SSE,160,14.0,14.0,93,0.00,,,0.31,VWS V14.01,2013-06-24 16:44:00,
2013-06-24 11:49:00,71.8,69.7,29.79,SE,134,12.0,22.0,93,0.00,,,0.31,VWS V14.01,2013-06-24 16:49:00,
2013-06-24 11:54:00,71.7,69.9,29.78,SSE,147,9.0,16.0,94,0.00,,OVC250,0.31,VWS V14.01,2013-06-24 16:54:00,
2013-06-24 11:59:00,71.6,69.8,29.80,South,169,7.0,19.0,94,0.00,,OVC250,0.31,VWS V14.01,2013-06-24 16:59:00,
2013-06-24 12:04:00,71.6,69.5,29.79,South,176,9.0,15.0,93,0.00,,OVC250,0.31,VWS V14.01,2013-06-24 17:04:00,
2013-06-24 12:09:00,71.6,69.2,29.77,ESE,120,2.0,10.0,92,0.00,,OVC250,0.32,VWS V14.01,2013-06-24 17:09:00,
2013-06-24 12:14:00,71.6,69.2,29.76,SE,131,1.0,8.0,92,0.00,,OVC250,0.32,VWS V14.01,2013-06-24 17:14:00,
2013-06-24 12:19:00,71.6,69.2,29.76,SE,134,10.0,10.0,92,0.00,,OVC250,0.32,VWS V14.01,2013-06-24 17:19:00,
2013-06-24 12:25:00,71.7,68.9,29.75,East,90,3.0,7.0,91,0.00,,OVC250,0.32,VWS V14.01,2013-06-24 17:25:00,
2013-06-24 12:30:00,71.7,68.9,29.74,East,86,6.0,8.0,91,0.00,,OVC250,0.32,VWS V14.01,2013-06-24 17:30:00,
2013-06-24 12:35:00,71.6,68.5,29.74,East,84,7.0,9.0,90,0.00,,OVC250,0.32,VWS V14.01,2013-06-24 17:35:00,
2013-06-24 12:40:00,71.6,68.5,29.75,ENE,60,3.0,4.0,90,0.00,,OVC250,0.32,VWS V14.01,2013-06-24 17:40:00,
2013-06-24 12:45:00,71.6,68.5,29.73,ESE,110,5.0,9.0,90,0.00,,OVC250,0.32,VWS V14.01,2013-06-24 17:45:00,
2013-06-24 12:50:00,71.7,68.3,29.73,SE,145,5.0,9.0,89,0.00,,OVC250,0.32,VWS V14.01,2013-06-24 17:50:00,
2013-06-24 12:55:00,71.7,68.0,29.73,SE,129,6.0,12.0,88,0.00,,OVC250,0.33,VWS V14.01,2013-06-24 17:55:00,
2013-06-24 13:00:00,71.9,68.2,29.74,SE,145,4.0,10.0,88,0.00,,OVC250,0.34,VWS V14.01,2013-06-24 18:00:00,
2013-06-24 13:07:00,71.9,67.8,29.71,SE,136,7.0,15.0,87,0.00,,OVC250,0.34,VWS V14.01,2013-06-24 18:07:00,
2013-06-24 13:12:00,71.9,68.2,29.71,South,174,9.0,14.0,88,0.00,,OVC250,0.34,VWS V14.01,2013-06-24 18:12:00,
2013-06-24 13:17:00,71.7,68.3,29.73,South,170,6.0,9.0,89,0.00,,OVC250,0.34,VWS V14.01,2013-06-24 18:17:00,
2013-06-24 13:22:00,71.7,68.3,29.74,SE,145,7.0,10.0,89,0.00,,OVC250,0.34,VWS V14.01,2013-06-24 18:22:00,
2013-06-24 13:27:00,71.8,68.1,29.74,SSE,158,5.0,6.0,88,0.00,,OVC250,0.34,VWS V14.01,2013-06-24 18:27:00,
2013-06-24 13:32:00,71.9,68.2,29.75,SSW,197,6.0,10.0,88,0.00,,OVC250,0.34,VWS V14.01,2013-06-24 18:32:00,
2013-06-24 13:38:00,71.9,68.2,29.75,SSW,211,2.0,5.0,88,0.00,,OVC250,0.34,VWS V14.01,2013-06-24 18:38:00,
2013-06-24 13:42:00,71.8,68.4,29.76,SW,231,4.0,4.0,89,0.00,,OVC250,0.34,VWS V14.01,2013-06-24 18:42:00,
2013-06-24 13:48:00,71.8,68.1,29.78,WSW,243,4.0,7.0,88,0.00,,OVC250,0.34,VWS V14.01,2013-06-24 18:48:00,
2013-06-24 13:53:00,72.1,68.3,29.78,WSW,240,1.0,4.0,88,0.00,,OVC250,0.34,VWS V14.01,2013-06-24 18:53:00,
2013-06-24 13:58:00,72.1,68.0,29.77,South,191,3.0,4.0,87,0.00,,OVC250,0.34,VWS V14.01,2013-06-24 18:58:00,
2013-06-24 14:03:00,72.3,68.6,29.76,SW,224,0.0,1.0,88,0.00,,OVC250,0.34,VWS V14.01,2013-06-24 19:03:00,
2013-06-24 14:08:00,72.6,68.5,29.78,SW,224,3.0,4.0,87,0.00,,OVC250,0.34,VWS V14.01,2013-06-24 19:08:00,
2013-06-24 14:13:00,72.9,69.1,29.79,South,180,3.0,4.0,88,0.00,,OVC250,0.34,VWS V14.01,2013-06-24 19:13:00,
2013-06-24 14:18:00,73.4,69.6,29.79,South,177,8.0,8.0,88,0.00,,OVC250,0.34,VWS V14.01,2013-06-24 19:18:00,
2013-06-24 14:23:00,73.8,69.7,29.77,SSE,158,6.0,10.0,87,0.00,,OVC250,0.34,VWS V14.01,2013-06-24 19:23:00,
2013-06-24 14:28:00,73.7,69.9,29.77,SSE,161,10.0,11.0,88,0.00,,OVC250,0.34,VWS V14.01,2013-06-24 19:28:00,
2013-06-24 14:33:00,73.6,69.8,29.77,SSW,193,13.0,21.0,88,0.00,,OVC250,0.34,VWS V14.01,2013-06-24 19:33:00,
2013-06-24 14:38:00,73.6,70.2,29.77,SSW,197,8.0,8.0,89,0.00,,OVC250,0.34,VWS V14.01,2013-06-24 19:38:00,
2013-06-24 14:43:00,74.0,70.6,29.78,SSE,162,3.0,6.0,89,0.00,,OVC250,0.34,VWS V14.01,2013-06-24 19:43:00,
2013-06-24 14:48:00,74.1,70.0,29.79,SSE,149,3.0,6.0,87,0.00,,OVC250,0.34,VWS V14.01,2013-06-24 19:48:00,
2013-06-24 14:54:00,74.2,70.1,29.77,SSW,193,3.0,3.0,87,0.00,,OVC250,0.34,VWS V14.01,2013-06-24 19:54:00,
2013-06-24 14:59:00,74.2,69.8,29.77,SSW,199,2.0,3.0,86,0.00,,OVC250,0.34,VWS V14.01,2013-06-24 19:59:00,
2013-06-24 15:04:00,74.1,69.7,29.76,South,176,4.0,6.0,86,0.00,,OVC250,0.34,VWS V14.01,2013-06-24 20:04:00,
2013-06-24 15:09:00,73.9,69.4,29.75,SSE,154,3.0,7.0,86,0.00,,OVC250,0.34,VWS V14.01,2013-06-24 20:09:00,
2013-06-24 15:14:00,73.7,69.6,29.75,SSE,162,0.0,5.0,87,0.00,,OVC250,0.34,VWS V14.01,2013-06-24 20:14:00,
2013-06-24 15:19:00,73.8,70.0,29.76,SSE,167,7.0,8.0,88,0.00,,OVC250,0.34,VWS V14.01,2013-06-24 20:19:00,
2013-06-24 15:24:00,74.1,70.0,29.77,ESE,119,8.0,8.0,87,0.00,,OVC250,0.34,VWS V14.01,2013-06-24 20:24:00,
2013-06-24 15:29:00,74.6,70.5,29.76,South,182,8.0,8.0,87,0.00,,OVC250,0.34,VWS V14.01,2013-06-24 20:29:00,
2013-06-24 15:34:00,75.3,70.8,29.76,SSE,153,8.0,11.0,86,0.00,,OVC250,0.34,VWS V14.01,2013-06-24 20:34:00,
2013-06-24 15:39:00,76.3,71.5,29.76,South,175,6.0,9.0,85,0.00,,OVC250,0.34,VWS V14.01,2013-06-24 20:39:00,
2013-06-24 15:44:00,77.1,70.8,29.76,South,172,5.0,11.0,81,0.00,,OVC250,0.34,VWS V14.01,2013-06-24 20:44:00,
2013-06-24 15:49:00,77.3,70.7,29.76,SSE,165,13.0,14.0,80,0.00,,OVC250,0.34,VWS V14.01,2013-06-24 20:49:00,
2013-06-24 15:54:00,77.3,70.7,29.75,South,171,7.0,15.0,80,0.00,,OVC250,0.34,VWS V14.01,2013-06-24 20:54:00,
2013-06-24 15:59:00,77.4,71.1,29.74,SSE,153,7.0,10.0,81,0.00,,OVC250,0.34,VWS V14.01,2013-06-24 20:59:00,
2013-06-24 16:05:00,77.5,70.8,29.73,East,85,6.0,7.0,80,0.00,,OVC250,0.34,VWS V14.01,2013-06-24 21:05:00,
2013-06-24 16:10:00,77.7,71.0,29.73,ESE,119,2.0,7.0,80,0.00,,OVC250,0.34,VWS V14.01,2013-06-24 21:10:00,
2013-06-24 16:15:00,78.0,71.7,29.72,South,170,2.0,5.0,81,0.00,,OVC250,0.34,VWS V14.01,2013-06-24 21:15:00,
2013-06-24 16:20:00,78.5,71.8,29.72,SSE,168,3.0,10.0,80,0.00,,OVC250,0.34,VWS V14.01,2013-06-24 21:20:00,
2013-06-24 16:25:00,78.9,72.2,29.72,SSE,149,12.0,12.0,80,0.00,,OVC250,0.34,VWS V14.01,2013-06-24 21:25:00,
2013-06-24 16:30:00,79.4,73.1,29.71,SE,131,6.0,11.0,81,0.00,,OVC250,0.34,VWS V14.01,2013-06-24 21:30:00,
2013-06-24 16:35:00,80.0,72.9,29.71,SSE,154,6.0,9.0,79,0.00,,OVC250,0.34,VWS V14.01,2013-06-24 21:35:00,
2013-06-24 16:40:00,80.6,72.7,29.71,SSE,154,10.0,14.0,77,0.00,,OVC250,0.34,VWS V14.01,2013-06-24 21:40:00,
2013-06-24 16:46:00,80.8,72.5,29.71,SSE,155,8.0,9.0,76,0.00,,OVC250,0.34,VWS V14.01,2013-06-24 21:46:00,
2013-06-24 16:51:00,80.7,72.0,29.70,SSE,157,7.0,12.0,75,0.00,,OVC250,0.34,VWS V14.01,2013-06-24 21:51:00,
2013-06-24 16:56:00,80.5,71.8,29.70,South,171,7.0,11.0,75,0.00,,OVC250,0.34,VWS V14.01,2013-06-24 21:56:00,
2013-06-24 17:01:00,80.4,72.2,29.71,SSE,157,7.0,15.0,76,0.00,,OVC250,0.34,VWS V14.01,2013-06-24 22:01:00,
2013-06-24 17:06:00,80.5,72.6,29.71,ESE,118,2.0,6.0,77,0.00,,OVC250,0.34,VWS V14.01,2013-06-24 22:06:00,
2013-06-24 17:11:00,80.7,72.4,29.72,South,170,6.0,10.0,76,0.00,,OVC250,0.34,VWS V14.01,2013-06-24 22:11:00,
2013-06-24 17:16:00,80.8,72.5,29.72,SE,131,8.0,9.0,76,0.00,,OVC250,0.34,VWS V14.01,2013-06-24 22:16:00,
2013-06-24 17:21:00,80.7,72.4,29.72,South,171,3.0,6.0,76,0.00,,OVC250,0.34,VWS V14.01,2013-06-24 22:21:00,
2013-06-24 17:26:00,80.8,72.5,29.73,South,187,3.0,10.0,76,0.00,,OVC250,0.34,VWS V14.01,2013-06-24 22:26:00,
2013-06-24 17:31:00,80.7,72.4,29.73,SE,138,4.0,7.0,76,0.00,,OVC250,0.34,VWS V14.01,2013-06-24 22:31:00,
2013-06-24 17:36:00,80.5,72.2,29.73,SSE,159,11.0,11.0,76,0.00,,OVC250,0.34,VWS V14.01,2013-06-24 22:36:00,
2013-06-24 17:41:00,80.2,72.3,29.73,SE,143,7.0,8.0,77,0.00,,OVC250,0.34,VWS V14.01,2013-06-24 22:41:00,
2013-06-24 17:46:00,80.0,72.5,29.73,SSE,161,6.0,9.0,78,0.00,,OVC250,0.34,VWS V14.01,2013-06-24 22:46:00,
2013-06-24 17:51:00,79.9,72.8,29.73,SE,135,5.0,6.0,79,0.00,,OVC250,0.34,VWS V14.01,2013-06-24 22:51:00,
2013-06-24 17:56:00,79.9,72.8,29.72,ESE,104,3.0,6.0,79,0.00,,OVC250,0.34,VWS V14.01,2013-06-24 22:56:00,
2013-06-24 18:01:00,80.1,73.0,29.72,SSE,168,2.0,6.0,79,0.00,,OVC250,0.34,VWS V14.01,2013-06-24 23:01:00,
2013-06-24 18:06:00,80.3,72.8,29.72,South,174,5.0,7.0,78,0.00,,OVC250,0.34,VWS V14.01,2013-06-24 23:06:00,
2013-06-24 18:11:00,80.6,73.5,29.72,SE,141,6.0,6.0,79,0.00,,OVC250,0.34,VWS V14.01,2013-06-24 23:11:00,
2013-06-24 18:17:00,80.7,73.6,29.72,South,172,4.0,6.0,79,0.00,,OVC250,0.34,VWS V14.01,2013-06-24 23:17:00,
2013-06-24 18:22:00,80.7,73.6,29.72,South,177,2.0,6.0,79,0.00,,OVC250,0.34,VWS V14.01,2013-06-24 23:22:00,
2013-06-24 18:27:00,80.7,72.8,29.72,South,179,3.0,5.0,77,0.00,,OVC250,0.34,VWS V14.01,2013-06-24 23:27:00,
2013-06-24 18:32:00,80.5,72.6,29.72,SSE,151,4.0,9.0,77,0.00,,OVC250,0.34,VWS V14.01,2013-06-24 23:32:00,
2013-06-24 18:37:00,80.4,72.9,29.71,SE,135,2.0,8.0,78,0.00,,OVC250,0.34,VWS V14.01,2013-06-24 23:37:00,
2013-06-24 18:42:00,80.3,73.2,29.71,SSE,164,2.0,4.0,79,0.00,,OVC250,0.34,VWS V14.01,2013-06-24 23:42:00,
2013-06-24 18:48:00,80.2,73.1,29.71,South,181,2.0,5.0,79,0.00,,OVC250,0.34,VWS V14.01,2013-06-24 23:48:00,
2013-06-24 18:53:00,80.2,73.5,29.71,SSE,164,2.0,6.0,80,0.00,,OVC250,0.34,VWS V14.01,2013-06-24 23:53:00,
2013-06-24 18:58:00,80.1,73.4,29.71,SE,127,1.0,7.0,80,0.00,,OVC250,0.34,VWS V14.01,2013-06-24 23:58:00,
2013-06-24 19:03:00,79.9,73.2,29.71,SSE,153,9.0,9.0,80,0.00,,OVC250,0.34,VWS V14.01,2013-06-25 00:03:00,
2013-06-24 19:08:00,79.8,73.1,29.71,South,182,3.0,7.0,80,0.00,,OVC250,0.34,VWS V14.01,2013-06-25 00:08:00,
2013-06-24 19:13:00,79.7,72.6,29.71,ESE,120,3.0,9.0,79,0.00,,OVC250,0.34,VWS V14.01,2013-06-25 00:13:00,
2013-06-24 19:18:00,79.6,72.9,29.71,South,170,2.0,6.0,80,0.00,,OVC250,0.34,VWS V14.01,2013-06-25 00:18:00,
2013-06-24 19:23:00,79.5,72.8,29.71,SE,133,3.0,6.0,80,0.00,,OVC250,0.34,VWS V14.01,2013-06-25 00:23:00,
2013-06-24 19:28:00,79.4,73.1,29.71,SSE,149,4.0,4.0,81,0.00,,OVC250,0.34,VWS V14.01,2013-06-25 00:28:00,
2013-06-24 19:33:00,79.4,73.1,29.71,SSE,147,5.0,6.0,81,0.00,,OVC250,0.34,VWS V14.01,2013-06-25 00:33:00,
2013-06-24 19:38:00,79.3,73.0,29.71,South,170,2.0,5.0,81,0.00,,OVC250,0.34,VWS V14.01,2013-06-25 00:38:00,
2013-06-24 19:43:00,79.2,73.2,29.71,SE,146,4.0,5.0,82,0.00,,OVC250,0.34,VWS V14.01,2013-06-25 00:43:00,
2013-06-24 19:49:00,79.1,73.1,29.71,SSE,167,1.0,5.0,82,0.00,,OVC250,0.34,VWS V14.01,2013-06-25 00:49:00,
2013-06-24 19:54:00,78.9,72.9,29.71,South,183,2.0,5.0,82,0.00,,OVC250,0.34,VWS V14.01,2013-06-25 00:54:00,
2013-06-24 19:59:00,78.8,73.2,29.71,South,177,1.0,4.0,83,0.00,,OVC250,0.34,VWS V14.01,2013-06-25 00:59:00,
2013-06-24 20:04:00,78.5,72.9,29.71,SSE,166,3.0,5.0,83,0.00,,OVC250,0.34,VWS V14.01,2013-06-25 01:04:00,
2013-06-24 20:09:00,78.3,73.1,29.71,SSE,160,3.0,5.0,84,0.00,,OVC250,0.34,VWS V14.01,2013-06-25 01:09:00,
2013-06-24 20:14:00,78.1,72.9,29.72,SSE,162,2.0,4.0,84,0.00,,OVC250,0.34,VWS V14.01,2013-06-25 01:14:00,
2013-06-24 20:19:00,77.9,72.7,29.72,SE,137,1.0,4.0,84,0.00,,OVC250,0.34,VWS V14.01,2013-06-25 01:19:00,
2013-06-24 20:24:00,77.7,72.8,29.72,SSE,154,1.0,4.0,85,0.00,,OVC250,0.34,VWS V14.01,2013-06-25 01:24:00,
2013-06-24 20:29:00,77.5,72.6,29.72,SSE,161,1.0,4.0,85,0.00,,OVC250,0.34,VWS V14.01,2013-06-25 01:29:00,
2013-06-24 20:35:00,77.4,72.5,29.72,SE,144,0.0,3.0,85,0.00,,OVC250,0.34,VWS V14.01,2013-06-25 01:35:00,
2013-06-24 20:41:00,77.2,72.7,29.71,SSE,149,2.0,3.0,86,0.00,,BKN048,0.34,VWS V14.01,2013-06-25 01:41:00,
2013-06-24 20:46:00,77.1,72.6,29.71,South,179,2.0,3.0,86,0.00,,BKN048,0.34,VWS V14.01,2013-06-25 01:46:00,
2013-06-24 20:51:00,76.9,72.4,29.71,SSE,166,1.0,2.0,86,0.00,,BKN048,0.34,VWS V14.01,2013-06-25 01:51:00,
2013-06-24 20:56:00,76.6,72.4,29.72,SSE,168,1.0,3.0,87,0.00,,BKN048,0.34,VWS V14.01,2013-06-25 01:56:00,
2013-06-24 21:01:00,76.3,72.5,29.72,South,179,2.0,3.0,88,0.00,,BKN048,0.34,VWS V14.01,2013-06-25 02:01:00,
2013-06-24 21:06:00,76.1,72.3,29.72,SSE,161,2.0,3.0,88,0.00,,BKN048,0.34,VWS V14.01,2013-06-25 02:06:00,
2013-06-24 21:11:00,76.0,72.5,29.72,SSE,166,0.0,3.0,89,0.00,,BKN048,0.34,VWS V14.01,2013-06-25 02:11:00,
2013-06-24 21:16:00,75.8,72.3,29.72,South,173,2.0,3.0,89,0.00,,BKN048,0.34,VWS V14.01,2013-06-25 02:16:00,
2013-06-24 21:22:00,75.7,72.2,29.72,South,174,1.0,4.0,89,0.00,,BKN048,0.34,VWS V14.01,2013-06-25 02:22:00,
2013-06-24 21:27:00,75.6,72.5,29.72,South,174,3.0,3.0,90,0.00,,BKN048,0.34,VWS V14.01,2013-06-25 02:27:00,
2013-06-24 21:32:00,75.6,72.5,29.73,South,178,4.0,5.0,90,0.00,,BKN048,0.34,VWS V14.01,2013-06-25 02:32:00,
2013-06-24 21:37:00,75.8,72.3,29.72,South,176,4.0,5.0,89,0.00,,BKN048,0.34,VWS V14.01,2013-06-25 02:37:00,
2013-06-24 21:42:00,75.8,72.3,29.72,South,170,3.0,4.0,89,0.00,,FEW046,0.34,VWS V14.01,2013-06-25 02:42:00,
2013-06-24 21:47:00,75.7,72.2,29.72,South,178,4.0,6.0,89,0.00,,FEW046,0.34,VWS V14.01,2013-06-25 02:47:00,
2013-06-24 21:52:00,75.7,72.2,29.72,SSE,156,4.0,4.0,89,0.00,,FEW046,0.34,VWS V14.01,2013-06-25 02:52:00,
2013-06-24 21:57:00,75.7,72.2,29.72,SSE,160,2.0,3.0,89,0.00,,FEW046,0.34,VWS V14.01,2013-06-25 02:57:00,
2013-06-24 22:02:00,75.7,72.2,29.73,SSE,160,1.0,3.0,89,0.00,,FEW046,0.34,VWS V14.01,2013-06-25 03:02:00,
2013-06-24 22:08:00,75.6,72.1,29.73,SSE,158,2.0,4.0,89,0.00,,FEW046,0.34,VWS V14.01,2013-06-25 03:08:00,
2013-06-24 22:13:00,75.5,71.7,29.73,SSE,165,2.0,3.0,88,0.00,,FEW046,0.34,VWS V14.01,2013-06-25 03:13:00,
2013-06-24 22:18:00,75.3,71.5,29.73,SSE,166,1.0,2.0,88,0.00,,FEW046,0.34,VWS V14.01,2013-06-25 03:18:00,
2013-06-24 22:23:00,75.3,71.5,29.73,SSE,162,3.0,3.0,88,0.00,,FEW046,0.34,VWS V14.01,2013-06-25 03:23:00,
2013-06-24 22:28:00,75.3,71.2,29.73,South,173,2.0,5.0,87,0.00,,FEW046,0.34,VWS V14.01,2013-06-25 03:28:00,
2013-06-24 22:33:00,75.3,70.5,29.73,SSE,165,4.0,6.0,85,0.00,,CLR,0.34,VWS V14.01,2013-06-25 03:33:00,
2013-06-24 22:38:00,75.5,70.3,29.73,South,169,4.0,5.0,84,0.00,,CLR,0.34,VWS V14.01,2013-06-25 03:38:00,
2013-06-24 22:43:00,75.6,69.7,29.73,SSE,158,6.0,8.0,82,0.00,,CLR,0.34,VWS V14.01,2013-06-25 03:43:00,
2013-06-24 22:49:00,75.7,69.8,29.73,SSE,168,5.0,5.0,82,0.00,,CLR,0.34,VWS V14.01,2013-06-25 03:49:00,
2013-06-24 22:54:00,75.7,69.5,29.73,South,170,6.0,6.0,81,0.00,,CLR,0.34,VWS V14.01,2013-06-25 03:54:00,
2013-06-24 23:00:00,76.0,69.4,29.72,South,173,7.0,7.0,80,0.00,,CLR,0.34,VWS V14.01,2013-06-25 04:00:00,
2013-06-24 23:01:00,76.1,69.5,29.73,SSW,193,5.0,7.0,80,0.00,,CLR,0.34,VWS V14.01,2013-06-25 04:01:00,
2013-06-24 23:06:00,76.6,69.2,29.72,SSE,162,10.0,10.0,78,0.00,,CLR,0.34,VWS V14.01,2013-06-25 04:06:00,
2013-06-24 23:11:00,77.0,68.9,29.72,South,169,7.0,9.0,76,0.00,,CLR,0.34,VWS V14.01,2013-06-25 04:11:00,
2013-06-24 23:16:00,77.3,68.8,29.72,South,178,8.0,10.0,75,0.00,,CLR,0.34,VWS V14.01,2013-06-25 04:16:00,
2013-06-24 23:21:00,77.6,68.7,29.72,South,179,9.0,12.0,74,0.00,,CLR,0.34,VWS V14.01,2013-06-25 04:21:00,
2013-06-24 23:26:00,77.9,68.2,29.71,South,188,7.0,15.0,72,0.00,,CLR,0.34,VWS V14.01,2013-06-25 04:26:00,
2013-06-24 23:31:00,78.0,68.2,29.71,SSE,156,10.0,17.0,72,0.00,,CLR,0.34,VWS V14.01,2013-06-25 04:31:00,
2013-06-24 23:36:00,78.2,68.4,29.70,South,185,12.0,12.0,72,0.00,,CLR,0.34,VWS V14.01,2013-06-25 04:36:00,
2013-06-24 23:41:00,78.3,68.1,29.70,South,189,9.0,15.0,71,0.00,,CLR,0.34,VWS V14.01,2013-06-25 04:41:00,
2013-06-24 23:46:00,78.3,68.1,29.70,South,185,12.0,12.0,71,0.00,,CLR,0.34,VWS V14.01,2013-06-25 04:46:00,
2013-06-24 23:51:00,78.5,67.9,29.70,SSW,197,8.0,13.0,70,0.00,,CLR,0.34,VWS V14.01,2013-06-25 04:51:00,
2013-06-24 23:56:00,78.2,67.6,29.70,South,184,8.0,16.0,70,0.00,,CLR,0.34,VWS V14.01,2013-06-25 04:56:00,